COSMOS 2564 (761)

Last updated on Tue Sep 16 2025 00:03:19 GMT+0000 (Coordinated Universal Time)

1 54377U 22161A 25258.25479823 .00000010 00000+0 00000+0 0 9999 2 54377 64.7401 201.8356 0010807 221.1311 138.7791 2.13101979 21778
UTC large
Height (km)
Speed (km/s)
/
Latitude / Longitude
Inclination (degrees)
Orbital Period (minutes)
Azimuth
Elevation
Range (km)
Doppler Factor

Next 0 passes for location: London (51.5072 / 0.1276)

Sorry there are no passes over London.